TimePST,TemperatureF,Dew PointF,Humidity,Sea Level PressureIn,VisibilityMPH,Wind Direction,Wind SpeedMPH,Gust SpeedMPH,PrecipitationIn,Events,Conditions,WindDirDegrees,DateUTC
12:50 AM,25.9,23.2,90,30.48,12.0,NNW,6.9,-,N/A,,Overcast,340,2013-01-21 08:50:00
1:50 AM,25.5,23.2,91,30.48,12.0,NW,4.6,-,N/A,,Overcast,310,2013-01-21 09:50:00
2:50 AM,25.5,23.0,90,30.48,12.0,NNW,5.8,-,N/A,,Overcast,340,2013-01-21 10:50:00
3:50 AM,25.3,23.0,91,30.48,12.0,North,4.6,-,N/A,,Overcast,350,2013-01-21 11:50:00
4:50 AM,25.3,22.6,89,30.48,12.0,West,4.6,-,N/A,,Overcast,260,2013-01-21 12:50:00
5:50 AM,25.2,22.3,89,30.48,12.0,WNW,3.5,-,N/A,,Overcast,290,2013-01-21 13:50:00
6:50 AM,25.2,22.6,90,30.46,12.0,West,3.5,-,N/A,,Overcast,260,2013-01-21 14:50:00
7:50 AM,25.0,22.3,89,30.45,8.0,West,3.5,-,N/A,,Overcast,280,2013-01-21 15:50:00
8:50 AM,25.0,21.9,88,30.45,7.0,NW,4.6,-,N/A,Snow,Light Snow Grains,320,2013-01-21 16:50:00
9:50 AM,25.0,21.7,87,30.45,7.0,West,2.3,-,N/A,,Overcast,260,2013-01-21 17:50:00
10:50 AM,25.2,21.9,87,30.47,7.0,NNW,5.8,-,0.00,Snow,Light Snow Grains,330,2013-01-21 18:50:00
11:50 AM,25.3,21.7,86,30.45,8.0,NW,4.6,-,N/A,,Overcast,310,2013-01-21 19:50:00
12:50 PM,25.3,21.7,86,30.45,8.0,WSW,3.5,-,N/A,,Overcast,250,2013-01-21 20:50:00
1:50 PM,25.2,21.6,86,30.43,8.0,South,2.3,-,N/A,Snow,Snow Grains,190,2013-01-21 21:50:00
2:50 PM,25.3,21.7,86,30.42,8.0,NNW,4.6,-,0.00,,Overcast,330,2013-01-21 22:50:00
3:50 PM,25.2,21.7,87,30.42,8.0,ENE,2.3,-,0.00,Snow,Snow Grains,60,2013-01-21 23:50:00
4:50 PM,25.0,21.4,86,30.41,8.0,West,4.6,-,0.00,,Overcast,280,2013-01-22 00:50:00
5:50 PM,24.8,21.0,86,30.41,8.0,NNW,2.3,-,N/A,,Overcast,340,2013-01-22 01:50:00
6:50 PM,24.6,21.0,86,30.41,8.0,WNW,4.6,-,N/A,,Overcast,300,2013-01-22 02:50:00
9:50 PM,24.1,19.8,84,30.40,12.0,SE,2.3,-,N/A,,Overcast,140,2013-01-22 05:50:00
10:50 PM,23.4,20.5,89,30.41,12.0,NNE,4.6,-,N/A,,Overcast,30,2013-01-22 06:50:00
11:50 PM,23.0,19.9,88,30.41,10.0,NNW,5.8,-,N/A,,Overcast,340,2013-01-22 07:50:00